Location: Unspecified
(41.1637°N, 24.2901°E)
Time: 14:13:16
(UTC+02:00)

ISS - Pass Details

Date: 28 June 2022
Orbit: 414 x 420 km, 51.6° (Epoch: 05 July)

Event Time Altitude Azimuth Distance (km) Brightness Sun altitude
Exits shadow 02:35:39 20° 130° (SE) 1,043 -1.9 -18.9°
Drops below altitude 10° 02:38:04 10° 84° (E) 1,496 -0.5 -18.6°
Sets 02:40:32 0° 67° (ENE) 2,365 1.0 -18.4°
